GW6384 Weather Reports


Display with metric or nautical units.
time (UTC)temp
F
wind
direction
speed
MPH
gust
MPH
rain 1hr
in
rain 24hr
in
rain mn
in
humidity
%
barometer
mb
20260507103721 40 348 0.0 12.0 0.00 0.00 0.00 89 1207.2
20260507103220 40 348 0.0 12.0 0.00 0.00 0.00 89 1206.6
20260507102719 40 348 0.0 12.0 0.00 0.00 0.00 89 1206.7
20260507102219 40 348 0.0 12.0 0.00 0.00 0.00 89 1207.5
20260507101718 41 348 0.0 12.0 0.00 0.00 0.00 89 1207.8
20260507101218 41 348 0.0 12.0 0.00 0.00 0.00 89 1207.2
20260507095646 41 348 0.0 12.0 0.00 0.00 0.00 89 1206.4
20260507095145 41 348 0.0 12.0 0.00 0.00 0.00 89 1206.8
20260507094644 41 348 0.0 12.0 0.00 0.00 0.00 89 1206.8
20260507094143 41 348 0.0 12.0 0.00 0.00 0.00 89 1206.6
20260507093643 41 348 0.0 12.0 0.00 0.00 0.00 89 1206.5
20260507093143 41 348 0.0 12.0 0.00 0.00 0.00 89 1206.8
20260507092643 41 348 0.0 12.0 0.00 0.00 0.00 89 1206.5
20260507091110 41 348 0.0 12.0 0.00 0.00 0.00 88 1207.8
20260507090609 41 348 0.0 12.0 0.00 0.00 0.00 88 1207.3
20260507090108 41 348 0.0 12.0 0.00 0.00 0.00 89 1206.8
20260507085607 42 348 0.0 12.0 0.00 0.00 0.00 89 1206.7
20260507085106 42 348 0.0 12.0 0.00 0.00 0.00 89 1207.4
20260507084605 42 348 0.0 12.0 0.00 0.00 0.00 89 1206.7
20260507084105 42 348 0.0 12.0 0.00 0.00 0.00 89 1206.1
20260507083604 42 348 0.0 12.0 0.00 0.00 0.00 88 1207.2
20260507083102 42 348 0.0 12.0 0.00 0.00 0.00 88 1206.7
20260507082046 42 348 0.0 12.0 0.00 0.00 0.00 88 1205.2
20260507081546 42 348 0.0 12.0 0.00 0.00 0.00 87 1206.8
20260507081045 42 348 0.0 12.0 0.00 0.00 0.00 86 1206.1
20260507080546 42 348 0.0 12.0 0.00 0.00 0.00 85 1205.0
20260507080045 42 348 0.0 12.0 0.00 0.00 0.00 85 1204.7
20260507075545 42 348 0.0 12.0 0.00 0.00 0.00 85 1204.9
20260507075044 42 348 0.0 12.0 0.00 0.00 0.00 85 1205.3
20260507074543 42 348 0.0 12.0 0.00 0.00 0.00 85 1206.3
20260507074042 42 348 0.0 12.0 0.00 0.00 0.00 86 1206.8
20260507073543 42 348 0.0 12.0 0.00 0.00 0.00 86 1206.7
20260507072536 42 348 0.0 12.0 0.00 0.00 0.00 85 1206.3
20260507072036 42 348 0.0 12.0 0.00 0.00 0.00 85 1206.5
20260507071536 42 348 0.0 12.0 0.00 0.00 0.00 85 1206.7
20260507071035 42 348 0.0 12.0 0.00 0.00 0.00 85 1207.1
20260507070534 43 348 0.0 12.0 0.00 0.00 0.00 86 1207.3
20260507070033 43 348 0.0 12.0 0.00 0.00 0.00 86 1207.4
20260507063946 43 348 0.0 12.0 0.00 0.00 0.00 85 1205.4
20260507062930 42 348 0.0 12.0 0.00 0.00 0.00 81 1207.1
20260507062429 43 348 0.0 12.0 0.00 0.00 0.00 81 1207.5
20260507061928 43 348 0.0 12.0 0.00 0.00 0.00 81 1207.6
20260507061428 43 348 0.0 12.0 0.00 0.00 0.00 81 1207.3
20260507060926 43 348 0.0 12.0 0.00 0.00 0.00 81 1206.5
20260507060426 43 348 0.0 12.0 0.00 0.00 0.00 81 1206.0
20260507055926 43 348 0.0 12.0 0.00 0.00 0.00 81 1205.9
20260507055426 43 348 0.0 12.0 0.00 0.00 0.00 81 1205.8
20260507054926 43 348 0.0 12.0 0.00 0.00 0.00 81 1206.2
20260507054426 43 348 0.0 12.0 0.00 0.00 0.00 81 1206.5
20260507053926 44 348 0.0 12.0 0.00 0.00 0.00 82 1206.6
20260507053426 44 348 0.0 12.0 0.00 0.00 0.00 82 1206.4
20260507052925 44 348 0.0 12.0 0.00 0.00 0.00 82 1206.2
20260507051910 44 348 0.0 12.0 0.00 0.00 0.00 80 1205.7
20260507051410 44 348 0.0 12.0 0.00 0.00 0.00 80 1205.4
20260507050909 44 348 0.0 12.0 0.00 0.00 0.00 80 1206.2
20260507050409 44 348 0.0 12.0 0.00 0.00 0.00 81 1206.4
20260507045909 44 348 0.0 12.0 0.00 0.00 0.01 81 1206.4
20260507045408 45 348 0.0 12.0 0.00 0.00 0.01 82 1205.5
20260507044352 45 348 0.0 12.0 0.00 0.00 0.01 81 1204.7
20260507043853 45 348 0.0 12.0 0.00 0.00 0.01 78 1205.4
20260507043352 45 348 0.0 12.0 0.00 0.00 0.01 78 1205.9
20260507042851 45 348 0.0 12.0 0.00 0.00 0.01 78 1205.6
20260507042351 45 348 0.0 12.0 0.00 0.00 0.01 78 1205.6
20260507041334 46 348 0.0 12.0 0.00 0.00 0.01 76 1205.3
20260507040833 46 348 0.0 12.0 0.00 0.00 0.01 76 1205.3
20260507040333 46 348 0.0 12.0 0.00 0.00 0.01 75 1205.2
20260507035832 46 348 0.0 12.0 0.00 0.00 0.01 75 1205.2
20260507035332 46 348 0.0 12.0 0.00 0.00 0.01 75 1205.1
20260507034831 46 348 0.0 12.0 0.00 0.00 0.01 75 1204.5
20260507034330 47 348 0.0 12.0 0.00 0.00 0.01 74 1204.5
20260507033828 47 348 0.0 12.0 0.00 0.00 0.01 74 1204.0
20260507033327 47 348 0.0 12.0 0.00 0.00 0.01 73 1204.7
20260507032826 47 348 0.0 12.0 0.00 0.00 0.01 73 1205.4
20260507032325 47 348 0.0 12.0 0.00 0.00 0.01 73 1205.3
20260507031824 47 348 0.0 12.0 0.00 0.00 0.01 73 1204.5
20260507031323 47 348 0.0 12.0 0.00 0.00 0.01 73 1203.2
20260507030307 48 348 0.0 12.0 0.00 0.00 0.01 72 1204.4
20260507025807 48 348 0.0 12.0 0.00 0.00 0.01 70 1204.1
20260507025307 49 348 0.0 12.0 0.00 0.00 0.01 70 1203.8
20260507024806 49 348 0.0 12.0 0.00 0.00 0.01 68 1204.1
20260507023749 50 348 0.0 12.0 0.00 0.00 0.01 68 1203.7
20260507022733 50 348 0.0 12.0 0.00 0.00 0.01 68 1202.2
20260507022233 51 348 0.0 12.0 0.00 0.00 0.01 67 1202.3
20260507021733 51 348 0.0 12.0 0.00 0.00 0.01 67 1202.3
20260507021232 51 348 0.0 12.0 0.00 0.00 0.01 64 1201.6
20260507020732 52 348 0.0 12.0 0.00 0.00 0.01 65 1200.9
20260507020232 53 348 0.0 12.0 0.00 0.00 0.01 63 1200.8
20260507015731 53 348 0.0 12.0 0.00 0.00 0.01 61 1200.2
20260507015231 53 348 0.0 12.0 0.00 0.00 0.01 60 1199.6
20260507014730 54 348 0.0 12.0 0.00 0.00 0.01 60 1198.4
20260507014230 55 348 1.0 12.0 0.00 0.00 0.01 59 1198.2
20260507013730 55 348 0.0 12.0 0.00 0.00 0.01 57 1199.4
20260507012713 56 348 0.0 12.0 0.00 0.00 0.01 55 1198.8
20260507010625 58 348 0.0 12.0 0.00 0.00 0.01 51 1197.5
20260507005609 58 348 0.0 12.0 0.00 0.00 0.01 48 1195.4
20260507005108 58 348 0.0 12.0 0.00 0.00 0.01 48 1193.8
20260507004606 59 348 0.0 12.0 0.00 0.00 0.01 46 1191.9
20260507004106 59 348 0.0 12.0 0.00 0.00 0.01 45 1187.1
20260507003605 59 349 2.0 12.0 0.00 0.00 0.01 44 1175.3
20260507003104 59 347 2.0 12.0 0.00 0.00 0.01 45 1151.8
20260507002603 59 325 3.0 12.0 0.00 0.00 0.01 44 1118.3
20260507002102 60 321 2.0 12.0 0.00 0.00 0.01 43 1094.5
20260507001601 60 357 2.0 12.0 0.00 0.00 0.01 43 1055.8
20260507001100 60 346 1.0 12.0 0.00 0.00 0.01 43 1138.0
20260507000601 60 347 3.0 12.0 0.00 0.00 0.01 43 1083.8
20260507000059 60 345 3.0 12.0 0.00 0.00 0.01 43 993.9
20260506235559 60 332 3.0 12.0 0.00 0.00 0.01 43 869.9
20260506235058 60 359 2.0 12.0 0.00 0.00 0.01 43 986.3
20260506234558 60 16 3.0 12.0 0.00 0.00 0.01 42 765.6
20260506234058 60 348 3.0 12.0 0.00 0.00 0.01 42 812.8
20260506233040 60 24 4.0 12.0 0.00 0.00 0.01 43 397.8
20260506232540 60 13 6.0 12.0 0.00 0.00 0.01 42 523.2
20260506232039 60 0 4.0 12.0 0.00 0.00 0.01 41 716.7
20260506231539 60 2 5.0 12.0 0.00 0.00 0.01 41 721.3
20260506231038 60 4 6.0 12.0 0.00 0.00 0.01 43 820.3
20260506230023 60 357 5.0 12.0 0.00 0.00 0.01 42 801.8
20260506225523 60 348 5.0 12.0 0.00 0.00 0.01 42 773.3
20260506225022 60 1 3.0 12.0 0.00 0.00 0.01 43 565.2
20260506224521 60 39 3.0 13.0 0.00 0.00 0.01 45 379.0
20260506224021 60 26 6.0 13.0 0.00 0.00 0.01 43 499.8
20260506223005 60 352 7.0 11.0 0.00 0.00 0.01 42 988.6
20260506221949 60 321 5.0 12.0 0.00 0.00 0.01 41 1008.1
20260506221448 60 344 6.0 13.0 0.00 0.00 0.01 41 867.2
20260506220948 60 9 9.0 12.0 0.00 0.00 0.01 44 810.9
20260506220448 60 340 5.0 12.0 0.00 0.00 0.01 42 1036.5
20260506215946 61 315 6.0 12.0 0.00 0.00 0.01 42 912.0
20260506214930 60 356 6.0 14.0 0.00 0.00 0.01 44 953.0
20260506214429 60 316 4.0 11.0 0.00 0.00 0.01 42 941.2
20260506213929 60 317 3.0 12.0 0.00 0.00 0.01 42 759.9
20260506213428 60 0 5.0 12.0 0.00 0.00 0.01 43 540.7
20260506212412 60 3 5.0 13.0 0.00 0.00 0.01 45 456.2
20260506211910 60 7 8.0 13.0 0.00 0.00 0.01 45 472.9
20260506211409 60 0 4.0 12.0 0.00 0.00 0.01 45 661.8
20260506210909 60 20 8.0 13.0 0.00 0.00 0.01 43 488.8
20260506210407 60 7 9.0 15.0 0.00 0.00 0.01 43 612.7
20260506205906 60 9 9.0 15.0 0.00 0.00 0.01 43 648.9
20260506204852 60 302 5.0 12.0 0.00 0.00 0.01 44 900.0
20260506204350 60 358 7.0 12.0 0.00 0.00 0.01 45 677.4
20260506203850 60 342 6.0 12.0 0.00 0.00 0.01 47 820.7
20260506203349 60 341 5.0 12.0 0.00 0.00 0.01 43 696.2
20260506202331 60 50 4.0 12.0 0.00 0.00 0.01 47 457.3
20260506201830 59 3 5.0 12.0 0.00 0.00 0.01 45 608.8
20260506200813 59 349 4.0 14.0 0.00 0.00 0.01 44 560.7
20260506200313 59 10 9.0 14.0 0.00 0.00 0.01 42 448.3
20260506195814 59 352 6.0 12.0 0.00 0.00 0.01 43 582.1
20260506195314 59 12 3.0 13.0 0.00 0.00 0.01 44 483.1
20260506194812 59 3 5.0 13.0 0.00 0.00 0.01 44 708.3
20260506193756 59 356 6.0 13.0 0.00 0.00 0.01 45 608.6
20260506193255 59 4 5.0 13.0 0.00 0.00 0.01 47 480.1
20260506192754 59 4 8.0 13.0 0.00 0.00 0.01 43 394.0
20260506192254 59 23 7.0 13.0 0.00 0.00 0.01 44 408.7
20260506191753 59 2 4.0 14.0 0.00 0.00 0.01 46 520.6
20260506191252 59 40 3.0 14.0 0.00 0.00 0.01 44 479.3
20260506190751 59 6 6.0 14.0 0.00 0.00 0.01 45 710.0
20260506190252 59 1 8.0 13.0 0.00 0.00 0.01 46 718.5
20260506185750 59 2 10.0 13.0 0.00 0.00 0.01 46 806.0
20260506184219 59 339 6.0 13.0 0.00 0.00 0.01 46 959.7
20260506183203 58 347 3.0 13.0 0.00 0.00 0.01 49 1001.1
20260506182703 58 3 5.0 13.0 0.00 0.00 0.01 51 806.0
20260506182203 58 343 7.0 13.0 0.00 0.00 0.01 47 940.5
20260506181145 59 342 5.0 12.0 0.00 0.00 0.01 48 690.4
20260506180645 58 10 6.0 12.0 0.00 0.00 0.01 52 695.8
20260506180145 58 3 5.0 15.0 0.00 0.00 0.01 50 715.8
20260506174614 58 311 7.0 13.0 0.00 0.00 0.01 49 960.7
20260506174112 58 349 6.0 12.0 0.00 0.00 0.01 54 940.4
20260506173057 58 357 6.0 12.0 0.00 0.00 0.01 52 778.3
20260506172556 57 356 4.0 12.0 0.00 0.00 0.01 51 964.6
20260506172055 57 346 4.0 12.0 0.00 0.00 0.01 53 1104.1
20260506171554 57 355 7.0 12.0 0.00 0.00 0.01 54 1021.7
20260506171054 57 286 6.0 12.0 0.00 0.00 0.01 52 963.8
20260506170554 56 338 3.0 13.0 0.00 0.00 0.01 56 910.5
20260506165537 56 7 7.0 13.0 0.00 0.00 0.01 53 643.8
20260506165036 56 7 7.0 13.0 0.00 0.00 0.01 53 913.7
20260506164536 56 338 7.0 13.0 0.00 0.00 0.01 53 1068.7
20260506163519 56 6 4.0 11.0 0.00 0.00 0.01 61 974.3
20260506162504 55 349 5.0 11.0 0.00 0.00 0.01 59 999.8
20260506162003 55 343 5.0 11.0 0.00 0.00 0.01 59 1086.1
20260506161503 55 323 3.0 11.0 0.00 0.00 0.01 62 1018.5
20260506161003 55 354 3.0 11.0 0.00 0.00 0.01 65 908.5
20260506160503 54 323 6.0 11.0 0.00 0.00 0.01 63 912.8
20260506160001 54 31 3.0 11.0 0.00 0.00 0.01 64 694.7
20260506155501 54 344 4.0 12.0 0.00 0.00 0.01 64 1002.0
20260506155001 54 0 6.0 12.0 0.00 0.00 0.01 61 951.7
20260506154500 54 319 3.0 12.0 0.00 0.00 0.01 65 940.6
20260506153959 54 17 3.0 12.0 0.00 0.00 0.01 69 803.4
20260506152941 54 343 5.0 12.0 0.00 0.00 0.01 65 1076.6
20260506152440 54 346 5.0 12.0 0.00 0.00 0.01 69 979.3
20260506151941 53 9 7.0 12.0 0.00 0.00 0.01 66 861.9
20260506151440 53 305 4.0 12.0 0.00 0.00 0.01 67 1079.2
20260506150940 53 359 4.0 12.0 0.00 0.00 0.01 70 1017.4
20260506150439 53 329 4.0 12.0 0.00 0.00 0.01 73 1093.2
20260506145939 53 322 3.0 12.0 0.00 0.00 0.01 71 1040.6
20260506145438 53 352 5.0 12.0 0.00 0.00 0.01 69 1031.1
20260506143352 52 308 4.0 12.0 0.00 0.00 0.01 77 1104.1
20260506142335 51 308 4.0 12.0 0.00 0.00 0.01 78 1084.4
20260506141834 51 312 4.0 12.0 0.00 0.00 0.01 78 1084.8
20260506141335 51 309 2.0 12.0 0.00 0.00 0.01 80 1092.6
20260506135804 50 269 2.0 12.0 0.00 0.00 0.01 83 957.5
20260506135306 50 266 0.0 12.0 0.00 0.00 0.01 83 957.0
20260506134249 49 292 3.0 12.0 0.00 0.00 0.01 83 954.0
20260506133748 49 268 1.0 12.0 0.00 0.00 0.01 86 901.9
20260506133247 49 267 1.0 12.0 0.00 0.00 0.01 85 850.1
20260506132747 48 265 2.0 12.0 0.00 0.00 0.01 87 754.7
20260506131216 47 89 0.0 12.0 0.00 0.00 0.01 90 393.1
20260506130715 47 74 0.0 12.0 0.00 0.00 0.01 90 369.9
20260506130214 47 69 0.0 12.0 0.00 0.00 0.01 90 364.6
20260506125713 47 69 0.0 12.0 0.00 0.00 0.01 90 363.8
20260506125213 47 69 0.0 12.0 0.00 0.00 0.01 90 361.8
20260506124712 47 68 0.0 12.0 0.00 0.00 0.01 90 359.0
20260506124211 47 68 0.0 12.0 0.00 0.00 0.01 91 360.4
20260506123711 46 68 0.0 12.0 0.00 0.00 0.01 91 361.4
20260506122656 46 68 0.0 12.0 0.00 0.00 0.01 90 361.4
20260506122156 46 68 0.0 12.0 0.00 0.00 0.01 90 360.9
20260506121139 46 68 0.0 12.0 0.00 0.00 0.01 90 357.2
20260506120639 45 66 1.0 12.0 0.00 0.00 0.01 90 352.9
20260506115622 45 64 0.0 12.0 0.00 0.00 0.01 90 351.5
20260506114605 45 64 0.0 12.0 0.00 0.00 0.01 90 352.4
20260506114105 45 64 0.0 12.0 0.00 0.00 0.01 90 353.3
20260506113604 45 64 3.0 12.0 0.00 0.00 0.01 89 357.2
20260506113104 45 64 0.0 12.0 0.00 0.00 0.01 89 365.5
20260506112602 45 64 1.0 12.0 0.00 0.00 0.01 89 381.6
20260506112102 45 84 3.0 12.0 0.00 0.00 0.01 90 416.8
20260506111601 45 93 0.0 12.0 0.00 0.00 0.01 90 417.2
20260506111101 45 85 2.0 12.0 0.00 0.00 0.01 90 407.6
20260506110600 46 84 0.0 12.0 0.00 0.00 0.01 90 407.8
20260506110100 46 84 0.0 12.0 0.00 0.00 0.01 89 408.7
20260506105043 46 84 0.0 12.0 0.00 0.00 0.01 89 410.6
20260506104542 46 84 0.0 12.0 0.00 0.00 0.01 89 410.7
20260506104041 46 84 0.0 12.0 0.00 0.00 0.01 89 410.1